This demonstration page uses our WeatherBlox Daily Observations layout. Learn more.

Left ArrowRight Arrow

36.17497, -115.13722

Hourly Observations for January 27, 2022

Temp ( °F °C ) Dew Point ( °F °C ) Humidity (%) Winds ( mph kmh ) Pressure ( in mb ) Visibility ( mi km ) Precip ( " mm )
12:53 am 00:53 Clear 44 6.7 8 -13.3 23 23 Calm 30.27 1025 10 16 0.00 0.00
1:53 am 01:53 Clear 44 6.7 8 -13.3 23 23 NNW 7 11 30.28 1026 10 16 0.00 0.00
2:53 am 02:53 Clear 43 6.1 8 -13.3 24 24 NNW 9 15 30.28 1025 10 16 0.00 0.00
3:53 am 03:53 Clear 43 6.1 8 -13.3 24 24 NW 9 15 30.27 1025 10 16 0.00 0.00
4:53 am 04:53 Clear 41 5 8 -13.3 25 25 WNW 3 6 30.29 1026 10 16 0.00 0.00
5:53 am 05:53 Clear 41 5 8 -13.3 25 25 NW 13 20 30.32 1027 10 16 0.00 0.00
6:53 am 06:53 Sunny 41 5 8 -13.3 25 25 NW 9 15 30.33 1027 10 16 0.00 0.00
7:53 am 07:53 Sunny 45 7.2 8 -13.3 22 22 NNW 7 11 30.35 1028 10 16 0.00 0.00
8:53 am 08:53 Sunny 49 9.4 8 -13.3 19 19 NW 10 17 30.37 1029 10 16 0.00 0.00
9:53 am 09:53 Sunny 52 11.1 11 -11.7 19 19 Calm 30.38 1029 10 16 0.00 0.00
10:53 am 10:53 Sunny 56 13.3 10 -12.2 16 16 Calm 30.37 1028 10 16 0.00 0.00
11:53 am 11:53 Sunny 57 13.9 9 -12.8 15 15 VRB 3 6 30.35 1028 10 16 0.00 0.00
12:53 pm 12:53 Sunny 59 15 9 -12.8 13 13 ESE 6 9 30.32 1027 10 16 0.00 0.00
1:53 pm 13:53 Sunny 62 16.7 9 -12.8 12 12 E 13 20 30.31 1026 10 16 0.00 0.00
2:53 pm 14:53 Sunny 63 17.2 8 -13.3 11 11 E 16 26 30.31 1027 10 16 0.00 0.00
3:53 pm 15:53 Sunny 62 16.7 11 -11.7 13 13 ENE 16 26 30.33 1027 10 16 0.00 0.00
4:53 pm 16:53 Sunny 59 15 11 -11.7 15 15 ENE 18 30 30.35 1028 10 16 0.00 0.00
5:53 pm 17:53 Clear 55 12.8 8 -13.3 15 15 E 8 13 30.40 1029 10 16 0.00 0.00
6:53 pm 18:53 Clear 56 13.3 5 -15 13 13 ENE 16 26 30.42 1030 10 16 0.00 0.00
7:53 pm 19:53 Clear 55 12.8 3 -16.1 12 12 NE 15 24 30.46 1032 10 16 0.00 0.00
8:53 pm 20:53 Clear 54 12.2 1 -17.2 11 11 NE 12 19 30.49 1032 10 16 0.00 0.00
9:53 pm 21:53 Clear 52 11.1 1 -17.2 12 12 ENE 9 15 30.51 1033 10 16 0.00 0.00
10:53 pm 22:53 Clear 52 11.1 1 -17.2 12 12 NNW 5 7 30.53 1034 10 16 0.00 0.00
11:53 pm 23:53 Clear 48 8.9 3 -16.1 15 15 WNW 6 9 30.54 1034 10 16 0.00 0.00

Powered by AerisWeather